TimeEST,TemperatureF,Dew PointF,Humidity,Sea Level PressureIn,VisibilityMPH,Wind Direction,Wind SpeedMPH,Gust SpeedMPH,PrecipitationIn,Events,Conditions,WindDirDegrees,DateUTC
12:15 AM,33.8,32.0,93,29.90,10.0,Calm,Calm,-,N/A,,Overcast,0,2013-03-02 05:15:00
12:35 AM,33.8,32.0,93,29.90,10.0,Calm,Calm,-,N/A,,Overcast,0,2013-03-02 05:35:00
12:55 AM,35.6,30.2,81,29.90,10.0,Calm,Calm,-,N/A,,Overcast,0,2013-03-02 05:55:00
1:15 AM,33.8,32.0,93,29.90,10.0,Calm,Calm,-,N/A,,Overcast,0,2013-03-02 06:15:00
1:35 AM,33.8,32.0,93,29.90,10.0,Calm,Calm,-,N/A,,Overcast,0,2013-03-02 06:35:00
1:55 AM,33.8,32.0,93,29.90,10.0,Calm,Calm,-,N/A,,Overcast,0,2013-03-02 06:55:00
2:15 AM,33.8,32.0,93,29.89,10.0,Calm,Calm,-,N/A,,Overcast,0,2013-03-02 07:15:00
2:35 AM,33.8,32.0,93,29.89,10.0,Calm,Calm,-,N/A,,Overcast,0,2013-03-02 07:35:00
2:55 AM,33.8,32.0,93,29.88,10.0,Calm,Calm,-,N/A,,Overcast,0,2013-03-02 07:55:00
3:15 AM,33.8,32.0,93,29.88,10.0,Calm,Calm,-,N/A,,Overcast,0,2013-03-02 08:15:00
3:35 AM,33.8,32.0,93,29.87,10.0,Calm,Calm,-,N/A,,Overcast,0,2013-03-02 08:35:00
3:55 AM,33.8,32.0,93,29.87,10.0,Calm,Calm,-,N/A,,Overcast,0,2013-03-02 08:55:00
4:15 AM,33.8,32.0,93,29.87,10.0,Calm,Calm,-,N/A,,Overcast,0,2013-03-02 09:15:00
4:35 AM,33.8,32.0,93,29.87,10.0,Calm,Calm,-,N/A,,Overcast,0,2013-03-02 09:35:00
4:55 AM,33.8,32.0,93,29.87,10.0,Calm,Calm,-,N/A,,Overcast,0,2013-03-02 09:55:00
5:15 AM,33.8,32.0,93,29.87,10.0,Calm,Calm,-,N/A,,Overcast,0,2013-03-02 10:15:00
5:35 AM,33.8,32.0,93,29.87,10.0,Calm,Calm,-,N/A,,Overcast,0,2013-03-02 10:35:00
5:55 AM,33.8,32.0,93,29.87,10.0,Calm,Calm,-,N/A,,Overcast,0,2013-03-02 10:55:00
6:15 AM,33.8,32.0,93,29.88,10.0,Calm,Calm,-,N/A,,Overcast,0,2013-03-02 11:15:00
6:35 AM,33.8,32.0,93,29.88,10.0,Calm,Calm,-,N/A,,Overcast,0,2013-03-02 11:35:00
6:55 AM,33.8,32.0,93,29.87,10.0,Calm,Calm,-,N/A,,Overcast,0,2013-03-02 11:55:00
7:15 AM,33.8,32.0,93,29.88,10.0,Calm,Calm,-,N/A,,Overcast,0,2013-03-02 12:15:00
7:35 AM,33.8,32.0,93,29.89,10.0,Calm,Calm,-,N/A,,Overcast,0,2013-03-02 12:35:00
7:55 AM,35.6,30.2,81,29.89,4.0,Calm,Calm,-,N/A,Snow,Light Snow,0,2013-03-02 12:55:00
8:15 AM,33.8,32.0,93,29.90,10.0,Calm,Calm,-,N/A,Rain,Light Rain,0,2013-03-02 13:15:00
8:35 AM,33.8,32.0,93,29.90,7.0,Calm,Calm,-,N/A,,Overcast,0,2013-03-02 13:35:00
8:55 AM,33.8,32.0,93,29.90,10.0,Calm,Calm,-,N/A,Rain,Light Rain,0,2013-03-02 13:55:00
9:15 AM,35.6,32.0,87,29.90,10.0,Calm,Calm,-,N/A,Rain,Light Rain,0,2013-03-02 14:15:00
9:35 AM,35.6,32.0,87,29.90,10.0,Calm,Calm,-,N/A,Rain,Light Rain,0,2013-03-02 14:35:00
9:55 AM,35.6,32.0,87,29.90,10.0,Calm,Calm,-,N/A,Snow,Light Snow,0,2013-03-02 14:55:00
10:15 AM,35.6,32.0,87,29.90,2.5,Calm,Calm,-,N/A,Rain,Rain,0,2013-03-02 15:15:00
10:35 AM,35.6,33.8,93,29.90,10.0,Calm,Calm,-,N/A,Rain,Light Rain,0,2013-03-02 15:35:00
10:55 AM,35.6,33.8,93,29.89,10.0,Calm,Calm,-,N/A,Rain,Rain,0,2013-03-02 15:55:00
11:15 AM,37.4,32.0,81,29.89,10.0,Calm,Calm,-,N/A,,Overcast,0,2013-03-02 16:15:00
11:35 AM,37.4,32.0,81,29.89,10.0,West,3.5,-,N/A,Rain,Light Rain,260,2013-03-02 16:35:00
11:55 AM,37.4,32.0,81,29.89,10.0,Calm,Calm,-,N/A,,Light Drizzle,0,2013-03-02 16:55:00
12:15 PM,39.2,32.0,75,29.88,10.0,Calm,Calm,-,N/A,,Overcast,0,2013-03-02 17:15:00
12:35 PM,41.0,32.0,70,29.87,10.0,WSW,3.5,-,N/A,,Overcast,250,2013-03-02 17:35:00
12:55 PM,41.0,32.0,70,29.86,10.0,Calm,Calm,-,N/A,,Overcast,0,2013-03-02 17:55:00
1:15 PM,41.0,32.0,70,29.85,10.0,Calm,Calm,-,N/A,,Overcast,0,2013-03-02 18:15:00
1:35 PM,41.0,32.0,70,29.84,10.0,Calm,Calm,-,N/A,,Overcast,0,2013-03-02 18:35:00
1:55 PM,42.8,32.0,66,29.84,10.0,Calm,Calm,-,N/A,,Overcast,0,2013-03-02 18:55:00
2:15 PM,42.8,32.0,66,29.82,10.0,North,3.5,-,N/A,,Overcast,10,2013-03-02 19:15:00
2:35 PM,42.8,32.0,66,29.82,10.0,WSW,3.5,-,N/A,,Overcast,250,2013-03-02 19:35:00
2:55 PM,37.4,32.0,81,29.84,7.0,NW,5.8,-,N/A,Rain,Rain,320,2013-03-02 19:55:00
3:15 PM,35.6,32.0,87,29.84,3.0,WSW,5.8,-,0.01,Rain,Rain,250,2013-03-02 20:15:00
3:35 PM,35.6,33.8,93,29.83,10.0,SSW,12.7,-,0.02,Rain,Light Rain,210,2013-03-02 20:35:00
3:55 PM,35.6,33.8,93,29.83,10.0,SW,12.7,-,0.02,,Overcast,230,2013-03-02 20:55:00
4:15 PM,37.4,32.0,81,29.82,10.0,Calm,Calm,-,N/A,,Overcast,0,2013-03-02 21:15:00
4:35 PM,37.4,33.8,87,29.83,10.0,Calm,Calm,-,N/A,,Overcast,0,2013-03-02 21:35:00
4:55 PM,39.2,33.8,81,29.83,10.0,Calm,Calm,-,N/A,,Mostly Cloudy,0,2013-03-02 21:55:00
5:15 PM,41.0,33.8,76,29.84,10.0,Calm,Calm,-,N/A,,Mostly Cloudy,0,2013-03-02 22:15:00
5:35 PM,39.2,33.8,81,29.85,10.0,West,3.5,-,N/A,,Mostly Cloudy,260,2013-03-02 22:35:00
5:55 PM,39.2,33.8,81,29.85,10.0,Calm,Calm,-,N/A,,Overcast,0,2013-03-02 22:55:00
6:15 PM,41.0,23.0,49,29.86,10.0,NW,8.1,-,N/A,,Overcast,310,2013-03-02 23:15:00
6:35 PM,37.4,23.0,56,29.87,10.0,NW,6.9,-,N/A,,Scattered Clouds,310,2013-03-02 23:35:00
6:55 PM,37.4,23.0,56,29.88,10.0,WNW,4.6,-,N/A,,Scattered Clouds,300,2013-03-02 23:55:00
7:15 PM,37.4,23.0,56,29.89,10.0,NNW,5.8,-,N/A,,Scattered Clouds,330,2013-03-03 00:15:00
7:35 PM,35.6,23.0,60,29.89,10.0,NW,3.5,-,N/A,,Scattered Clouds,320,2013-03-03 00:35:00
7:55 PM,35.6,23.0,60,29.90,10.0,NW,3.5,-,N/A,,Scattered Clouds,320,2013-03-03 00:55:00
8:15 PM,35.6,21.2,56,29.90,10.0,NW,3.5,-,N/A,,Scattered Clouds,320,2013-03-03 01:15:00
8:35 PM,33.8,21.2,60,29.90,10.0,NNW,4.6,-,N/A,,Clear,330,2013-03-03 01:35:00
8:55 PM,33.8,21.2,60,29.91,10.0,NNW,4.6,-,N/A,,Clear,330,2013-03-03 01:55:00
9:15 PM,33.8,21.2,60,29.91,10.0,NW,3.5,-,N/A,,Clear,320,2013-03-03 02:15:00
9:35 PM,33.8,21.2,60,29.92,10.0,Calm,Calm,-,N/A,,Clear,0,2013-03-03 02:35:00
9:55 PM,32.0,21.2,64,29.93,10.0,Calm,Calm,-,N/A,,Clear,0,2013-03-03 02:55:00
10:15 PM,32.0,21.2,64,29.93,10.0,Calm,Calm,-,N/A,,Clear,0,2013-03-03 03:15:00
10:35 PM,32.0,21.2,64,29.93,10.0,Calm,Calm,-,N/A,,Clear,0,2013-03-03 03:35:00
10:55 PM,32.0,21.2,64,29.93,10.0,Calm,Calm,-,N/A,,Clear,0,2013-03-03 03:55:00
11:15 PM,30.2,21.2,69,29.93,10.0,Calm,Calm,-,N/A,,Clear,0,2013-03-03 04:15:00
11:35 PM,30.2,23.0,75,29.93,10.0,Calm,Calm,-,N/A,,Clear,0,2013-03-03 04:35:00
11:55 PM,30.2,21.2,69,29.93,10.0,Calm,Calm,-,N/A,,Clear,0,2013-03-03 04:55:00